Weather History for BIEG - November, 2012

Change the Weather History Date:

Thursday, November 1, 2012

  Actual Average Record
Temperature  
Mean Temperature 30 °F -  
Max Temperature 33 °F 34 °F - ()
Min Temperature 28 °F 24 °F - ()
Degree Days  
Heating Degree Days 34    
Moisture  
Dew Point 30 °F    
Average Humidity 97    
Maximum Humidity 100    
Minimum Humidity 87    
Precipitation  
Precipitation 0.00 in - - ()
Sea Level Pressure  
Sea Level Pressure 29.29 in    
Wind  
Wind Speed 31 mph ()    
Max Wind Speed 41 mph    
Max Gust Speed 60 mph    
Visibility 2.4 miles    
Events Rain , Snow    
T = Trace of Precipitation, MM = Missing Value Source: Averaged Metar Reports

Daily Weather History Graph

Daily Weather History Graph

Search for Another Location

Airport or City:

Trip Planner

Search our weather history database for the weather conditions in past years. The results will help you decide how hot, cold, wet, or windy it might be!

Date:

Astronomy

Nov. 01, 2012 Rise Set
Actual Time 8:49 AM GMT 4:31 PM GMT
Civil Twilight 7:52 AM GMT 5:28 PM GMT
Nautical Twilight 6:52 AM GMT 6:28 PM GMT
Astronomical Twilight 5:55 AM GMT 7:25 PM GMT
Moon 5:11 PM GMT (11/1) 12:17 PM GMT (11/1)
Length of Visible Light 9h 35m
Length of Day
7h 42m
Waning Gibbous, 94% of the Moon is Illuminated
Nov 1
Waning Gibbous
Nov 7
Last Quarter
Nov 13
New
Nov 20
First Quarter
Nov 28
Full

Hourly Weather History & Observations

Time (GMT) Temp. Windchill Dew Point Humidity Pressure Visibility Wind Dir Wind Speed Gust Speed Precip Events Conditions
12:00 AM 32.0 °F 15.6 °F 32.0 °F 100% 29.30 in 1.9 mi North 41.4 mph 52.9 mph N/A Rain , Snow Light Rain Showers
1:00 AM 33.8 °F 19.4 °F 32.0 °F 93% 29.30 in 2.5 mi North 33.4 mph 44.9 mph N/A Rain , Snow Light Rain Showers
2:00 AM 32.0 °F 16.7 °F 32.0 °F 100% 29.30 in 5.0 mi NNE 34.5 mph 59.8 mph N/A Snow Light Snow
3:00 AM 33.8 °F 19.2 °F 30.2 °F 87% 29.30 in 5.3 mi North 34.5 mph 51.8 mph N/A Rain Light Rain
4:00 AM 32.0 °F 15.8 °F 32.0 °F 100% 29.30 in 1.2 mi North 40.3 mph 55.2 mph N/A Snow Light Snow
5:00 AM 32.0 °F 15.8 °F 32.0 °F 100% 29.30 in 1.0 mi North 40.3 mph 51.8 mph N/A Snow Light Snow
6:00 AM 32.0 °F 16.7 °F 32.0 °F 100% 29.30 in 1.2 mi North 34.5 mph 51.8 mph N/A Rain , Snow Rain
7:00 AM 32.0 °F 17.6 °F 32.0 °F 100% 29.30 in 0.7 mi North 29.9 mph 48.3 mph N/A Rain , Snow Rain
8:00 AM 32.0 °F 16.7 °F 30.2 °F 93% 29.30 in 0.4 mi North 34.5 mph 50.6 mph N/A Rain , Snow Rain
9:00 AM 32.0 °F 16.7 °F 30.2 °F 93% 29.30 in 3.7 mi North 34.5 mph 46.0 mph N/A Rain , Snow Rain
10:00 AM 32.0 °F 17.4 °F 28.4 °F 87% 29.33 in 5.6 mi North 31.1 mph 42.6 mph N/A Rain Rain
11:00 AM 30.2 °F 14.7 °F 30.2 °F 100% 29.30 in 1.2 mi North 32.2 mph 51.8 mph N/A Snow Light Blowing Snow
12:00 PM 32.0 °F 18.1 °F 30.2 °F 93% 29.30 in 3.1 mi North 27.6 mph 40.3 mph N/A Snow Light Low Drifting Snow
1:00 PM 32.0 °F 18.9 °F 30.2 °F 93% 29.27 in 5.6 mi North 24.2 mph 35.7 mph N/A Snow Light Low Drifting Snow
2:00 PM 30.2 °F 13.5 °F 30.2 °F 100% 29.27 in 5.0 mi North 39.1 mph 51.8 mph N/A Snow Low Drifting Snow
3:00 PM 32.0 °F 16.0 °F 30.2 °F 93% 29.27 in 5.0 mi North 39.1 mph 50.6 mph N/A Snow Low Drifting Snow
4:00 PM 30.2 °F 13.7 °F 28.4 °F 93% 29.30 in 3.1 mi North 38.0 mph 52.9 mph N/A Snow Light Blowing Snow
5:00 PM - - - N/A% 29.30 in 1.9 mi North 38.0 mph 49.5 mph N/A   Unknown
6:00 PM 28.4 °F 10.8 °F 28.4 °F 100% 29.30 in 0.9 mi North 40.3 mph 51.8 mph N/A Snow Blowing Snow
7:00 PM 28.4 °F 11.8 °F 28.4 °F 100% 29.27 in 0.9 mi North 34.5 mph 47.2 mph N/A Snow Blowing Snow
8:00 PM 28.4 °F 11.2 °F 28.4 °F 100% 29.27 in 0.6 mi North 38.0 mph 49.5 mph N/A Snow Heavy Blowing Snow
9:00 PM 28.4 °F 11.6 °F 28.4 °F 100% 29.27 in 0.2 mi North 35.7 mph 47.2 mph N/A Snow Heavy Blowing Snow
10:00 PM 28.4 °F 11.6 °F 28.4 °F 100% 29.24 in 0.2 mi North 35.7 mph 51.8 mph N/A Snow Heavy Blowing Snow
11:00 PM 28.4 °F 24.6 °F 28.4 °F 100% 29.24 in 0.2 mi North 3.5 mph 47.2 mph N/A Snow Heavy Blowing Snow